When you browse on this site, cookies collect data to enhance your experience and personalize the content and advertising you see.
Visit our Privacy Policy to learn more. By continuing to use the site, you agree to this use of cookies and data.
  • In Hungary
  • List of Countries
  • For 7 days
  • Water Temperature
  • Weather Map
  • News
  • Weather Widgets
  • user-avatar
    Login

    Hourly Weather Malaya Kupta

    Today, 18 October, Friday

    Time Temperature Precipitation Wind Pressure Humidity
    00:00 +9°C° 0.1 mm 1 mps 749 mmHg 97%
    01:00 +7°C° 0.3 mm 2 mps 749 mmHg 97%
    02:00 +7°C° 0.3 mm 2 mps 749 mmHg 97%
    03:00 +7°C° 0.3 mm 2 mps 749 mmHg 98%
    04:00 +6°C° 0.3 mm 2 mps 749 mmHg 97%
    05:00 +5°C° 0.3 mm 3 mps 749 mmHg 97%
    06:00 +4°C° 0.3 mm 4 mps 748 mmHg 96%
    07:00 +4°C° 0.3 mm 4 mps 748 mmHg 96%
    08:00 +4°C° 0.3 mm 4 mps 749 mmHg 95%
    09:00 +3°C° 0.3 mm 4 mps 749 mmHg 94%
    10:00 +3°C° 0.3 mm 4 mps 748 mmHg 94%
    11:00 +2°C° 0.3 mm 5 mps 748 mmHg 94%
    12:00 +2°C° 0.3 mm 5 mps 748 mmHg 94%
    13:00 +2°C° 0.8 mm 5 mps 749 mmHg 94%
    14:00 +1°C° 0.8 mm 6 mps 749 mmHg 94%
    15:00 +1°C° 0.8 mm 6 mps 749 mmHg 93%
    16:00 +1°C° 0.2 mm 6 mps 750 mmHg 92%
    17:00 +1°C° 0.2 mm 6 mps 750 mmHg 91%
    18:00 -1°C° 0.2 mm 6 mps 751 mmHg 91%
    19:00 -1°C° 0 mm 6 mps 751 mmHg 90%
    20:00 -1°C° 0 mm 6 mps 752 mmHg 89%
    21:00 -1°C° 0 mm 6 mps 752 mmHg 88%
    22:00 -1°C° 0 mm 6 mps 753 mmHg 87%
    23:00 0°C° 0 mm 5 mps 753 mmHg 86%

    Tomorrow, 19 October, Saturday

    Time Temperature Precipitation Wind Pressure Humidity
    00:00 0°C° 0 mm 5 mps 754 mmHg 85%
    01:00 -1°C° 0 mm 5 mps 754 mmHg 85%
    02:00 -1°C° 0 mm 5 mps 755 mmHg 85%
    03:00 -2°C° 0 mm 4 mps 755 mmHg 85%
    04:00 -2°C° 0 mm 4 mps 755 mmHg 87%
    05:00 -2°C° 0 mm 3 mps 756 mmHg 89%
    06:00 -4°C° 0 mm 3 mps 756 mmHg 91%
    07:00 -2°C° 0 mm 3 mps 756 mmHg 89%
    08:00 -2°C° 0 mm 3 mps 757 mmHg 87%
    09:00 -1°C° 0 mm 3 mps 758 mmHg 85%
    10:00 -1°C° 0 mm 3 mps 758 mmHg 84%
    11:00 0°C° 0 mm 3 mps 758 mmHg 82%
    12:00 0°C° 0 mm 3 mps 758 mmHg 81%
    13:00 0°C° 0 mm 3 mps 758 mmHg 80%
    14:00 0°C° 0 mm 3 mps 758 mmHg 80%
    15:00 +1°C° 0 mm 3 mps 758 mmHg 79%
    16:00 +1°C° 0 mm 2 mps 758 mmHg 80%
    17:00 +1°C° 0 mm 2 mps 759 mmHg 81%
    18:00 +1°C° 0 mm 2 mps 759 mmHg 82%
    19:00 +2°C° 0 mm 1 mps 759 mmHg 83%
    20:00 +2°C° 0 mm 1 mps 759 mmHg 84%
    21:00 +2°C° 0 mm 1 mps 759 mmHg 84%
    22:00 +1°C° 0 mm 1 mps 759 mmHg 86%
    23:00 +1°C° 0 mm 1 mps 759 mmHg 87%

    Day after tomorrow, 20 October, Sunday

    Time Temperature Precipitation Wind Pressure Humidity
    00:00 +1°C° 0 mm 1 mps 759 mmHg 88%
    01:00 0°C° 0 mm 1 mps 759 mmHg 88%
    02:00 0°C° 0 mm 1 mps 759 mmHg 89%
    03:00 0°C° 0 mm 1 mps 759 mmHg 89%
    04:00 0°C° 0 mm 1 mps 759 mmHg 89%
    05:00 -2°C° 0 mm 2 mps 759 mmHg 89%
    06:00 -2°C° 0 mm 2 mps 759 mmHg 90%
    07:00 -1°C° 0 mm 2 mps 759 mmHg 87%
    08:00 +1°C° 0 mm 2 mps 759 mmHg 84%
    09:00 +2°C° 0 mm 2 mps 759 mmHg 81%
    10:00 +2°C° 0 mm 3 mps 759 mmHg 81%
    11:00 +3°C° 0 mm 3 mps 758 mmHg 81%
    12:00 +4°C° 0 mm 4 mps 758 mmHg 80%
    13:00 +4°C° 0 mm 4 mps 758 mmHg 82%
    14:00 +4°C° 0 mm 4 mps 758 mmHg 84%
    15:00 +5°C° 0 mm 4 mps 758 mmHg 85%
    16:00 +5°C° 0 mm 4 mps 757 mmHg 87%
    17:00 +5°C° 0 mm 5 mps 757 mmHg 89%
    18:00 +5°C° 0 mm 5 mps 757 mmHg 91%
    19:00 +5°C° 0 mm 5 mps 757 mmHg 91%
    20:00 +5°C° 0 mm 5 mps 756 mmHg 92%
    21:00 +5°C° 0 mm 5 mps 756 mmHg 92%
    22:00 +5°C° 0 mm 5 mps 756 mmHg 92%
    23:00 +6°C° 0 mm 5 mps 756 mmHg 92%

    21 October, Monday

    Time Temperature Precipitation Wind Pressure Humidity
    00:00 +6°C° 0 mm 5 mps 755 mmHg 93%
    01:00 +6°C° 0.4 mm 5 mps 755 mmHg 93%
    02:00 +6°C° 0.4 mm 5 mps 755 mmHg 94%
    03:00 +6°C° 0.4 mm 5 mps 755 mmHg 94%
    04:00 +6°C° 0.4 mm 5 mps 755 mmHg 95%
    05:00 +6°C° 0.4 mm 5 mps 755 mmHg 95%
    06:00 +7°C° 0.4 mm 4 mps 754 mmHg 95%
    07:00 +7°C° 0.1 mm 4 mps 754 mmHg 95%
    08:00 +7°C° 0.1 mm 4 mps 755 mmHg 95%
    09:00 +7°C° 0.1 mm 4 mps 755 mmHg 95%
    10:00 +7°C° 0.1 mm 4 mps 755 mmHg 93%
    11:00 +8°C° 0.1 mm 4 mps 755 mmHg 91%
    12:00 +10°C° 0.1 mm 4 mps 755 mmHg 89%
    13:00 +10°C° 0 mm 4 mps 754 mmHg 89%
    14:00 +10°C° 0 mm 4 mps 754 mmHg 89%
    15:00 +10°C° 0 mm 4 mps 754 mmHg 90%
    16:00 +10°C° 0 mm 4 mps 754 mmHg 90%
    17:00 +8°C° 0 mm 4 mps 753 mmHg 91%
    18:00 +8°C° 0 mm 4 mps 753 mmHg 92%
    19:00 +8°C° 0 mm 5 mps 752 mmHg 91%
    20:00 +9°C° 0 mm 5 mps 752 mmHg 90%
    21:00 +9°C° 0 mm 5 mps 751 mmHg 90%
    22:00 +9°C° 0 mm 6 mps 751 mmHg 89%
    23:00 +9°C° 0 mm 6 mps 750 mmHg 88%

    22 October, Tuesday

    Time Temperature Precipitation Wind Pressure Humidity
    00:00 +9°C° 0 mm 6 mps 750 mmHg 88%
    01:00 +9°C° 0 mm 6 mps 749 mmHg 88%
    02:00 +9°C° 0 mm 6 mps 749 mmHg 89%
    03:00 +9°C° 0 mm 6 mps 748 mmHg 89%
    04:00 +9°C° 0 mm 7 mps 747 mmHg 89%
    05:00 +8°C° 0 mm 7 mps 747 mmHg 89%
    06:00 +7°C° 0 mm 8 mps 746 mmHg 89%
    07:00 +9°C° 0 mm 8 mps 745 mmHg 86%
    08:00 +8°C° 0 mm 9 mps 744 mmHg 83%
    09:00 +10°C° 0 mm 9 mps 743 mmHg 80%
    10:00 +10°C° 0.6 mm 9 mps 743 mmHg 81%
    11:00 +10°C° 0.6 mm 9 mps 742 mmHg 83%
    12:00 +10°C° 0.6 mm 9 mps 741 mmHg 84%
    13:00 +10°C° 0.5 mm 9 mps 741 mmHg 85%
    14:00 +10°C° 0.5 mm 8 mps 741 mmHg 86%
    15:00 +10°C° 0.5 mm 8 mps 741 mmHg 87%
    16:00 +9°C° 0.2 mm 7 mps 742 mmHg 87%
    17:00 +9°C° 0.2 mm 6 mps 742 mmHg 87%
    18:00 +8°C° 0.2 mm 4 mps 743 mmHg 87%
    19:00 +7°C° 0 mm 5 mps 743 mmHg 87%
    20:00 +7°C° 0 mm 5 mps 744 mmHg 87%
    21:00 +7°C° 0 mm 5 mps 744 mmHg 87%
    22:00 +6°C° 0 mm 5 mps 745 mmHg 85%
    23:00 +5°C° 0 mm 6 mps 745 mmHg 83%

    23 October, Wednesday

    Time Temperature Precipitation Wind Pressure Humidity
    00:00 +4°C° 0 mm 6 mps 746 mmHg 81%
    01:00 +3°C° 0 mm 7 mps 746 mmHg 80%
    02:00 +3°C° 0 mm 7 mps 747 mmHg 80%
    03:00 +2°C° 0 mm 7 mps 748 mmHg 79%
    04:00 +1°C° 0 mm 6 mps 749 mmHg 78%
    05:00 -1°C° 0 mm 6 mps 750 mmHg 78%
    06:00 0°C° 0 mm 5 mps 751 mmHg 77%
    07:00 0°C° 0 mm 5 mps 752 mmHg 76%
    08:00 0°C° 0 mm 5 mps 752 mmHg 74%
    09:00 0°C° 0 mm 5 mps 753 mmHg 72%
    10:00 +1°C° 0 mm 5 mps 753 mmHg 68%
    11:00 +2°C° 0 mm 5 mps 754 mmHg 65%
    12:00 +3°C° 0 mm 4 mps 754 mmHg 61%
    13:00 +3°C° 0 mm 4 mps 754 mmHg 62%
    14:00 +3°C° 0 mm 4 mps 754 mmHg 63%
    15:00 +3°C° 0 mm 4 mps 754 mmHg 65%
    16:00 +3°C° 0 mm 4 mps 754 mmHg 68%
    17:00 +1°C° 0 mm 4 mps 754 mmHg 71%
    18:00 +1°C° 0 mm 4 mps 754 mmHg 74%
    19:00 +1°C° 0 mm 5 mps 754 mmHg 75%
    20:00 0°C° 0 mm 5 mps 754 mmHg 75%
    21:00 0°C° 0 mm 5 mps 754 mmHg 75%
    22:00 0°C° 0 mm 5 mps 754 mmHg 76%
    23:00 0°C° 0 mm 5 mps 753 mmHg 78%
    Show more